PTD41 EGKA-EGKA

Flight info

Callsign PTD41
Flight time 0h 15m
Altitude 3300
Route BRIGHTON MARINA
Aircraft P28A/L-V/N

Departure

Time 2026-04-22 07:13
Airport Brighton City Airport (EGKA)

Arrival

Time 2026-04-22 07:29
Airport Brighton City Airport (EGKA)
Time Latitude Longitude Altitude Speed Heading
2026-04-22 06:53 50.83428 -0.29019 11 ft 0 kts 251°
2026-04-22 06:54 50.83428 -0.29020 11 ft 0 kts 251°
2026-04-22 06:54 50.83425 -0.29035 12 ft 5 kts 259°
2026-04-22 06:55 50.83461 -0.29080 14 ft 8 kts 298°
2026-04-22 06:55 50.83447 -0.29191 14 ft 11 kts 282°
2026-04-22 06:55 50.83412 -0.29333 14 ft 17 kts 243°
2026-04-22 06:55 50.83363 -0.29495 14 ft 17 kts 243°
2026-04-22 06:56 50.83309 -0.29666 14 ft 9 kts 245°
2026-04-22 06:56 50.83281 -0.29747 14 ft 5 kts 246°
2026-04-22 06:56 50.83263 -0.29809 14 ft 8 kts 242°
2026-04-22 06:56 50.83232 -0.29852 14 ft 0 kts 206°
2026-04-22 06:57 50.83230 -0.29859 14 ft 2 kts 267°
2026-04-22 06:57 50.83232 -0.29865 14 ft 0 kts 318°
2026-04-22 06:57 50.83235 -0.29867 14 ft 0 kts 349°
2026-04-22 07:11 50.83240 -0.29892 11 ft 7 kts 277°
2026-04-22 07:11 50.83271 -0.29917 10 ft 0 kts 33°
2026-04-22 07:12 50.83369 -0.29853 9 ft 37 kts 21°
2026-04-22 07:12 50.83698 -0.29656 29 ft 60 kts 24°
2026-04-22 07:12 50.84090 -0.29429 145 ft 59 kts 25°
2026-04-22 07:12 50.84470 -0.29281 234 ft 57 kts 15°
2026-04-22 07:13 50.84835 -0.29093 317 ft 57 kts 42°
2026-04-22 07:13 50.84881 -0.28426 389 ft 77 kts 103°
2026-04-22 07:13 50.84458 -0.27809 548 ft 95 kts 152°
2026-04-22 07:13 50.83811 -0.27703 831 ft 93 kts 166°
2026-04-22 07:14 50.83158 -0.27707 993 ft 95 kts 171°
2026-04-22 07:14 50.82507 -0.27609 1223 ft 88 kts 146°
2026-04-22 07:14 50.82072 -0.27001 1408 ft 83 kts 122°
2026-04-22 07:14 50.81745 -0.26300 1640 ft 77 kts 112°
2026-04-22 07:15 50.81571 -0.25508 1801 ft 76 kts 97°
2026-04-22 07:15 50.81495 -0.24682 1959 ft 76 kts 96°
2026-04-22 07:15 50.81454 -0.23825 2045 ft 81 kts 94°
2026-04-22 07:15 50.81437 -0.22958 2194 ft 79 kts 92°
2026-04-22 07:16 50.81443 -0.22039 2222 ft 86 kts 91°
2026-04-22 07:16 50.81473 -0.21046 2214 ft 94 kts 89°
2026-04-22 07:16 50.81531 -0.20007 2237 ft 95 kts 87°
2026-04-22 07:16 50.81613 -0.18969 2243 ft 96 kts 86°
2026-04-22 07:17 50.81582 -0.17938 2284 ft 93 kts 98°
2026-04-22 07:17 50.81415 -0.16948 2299 ft 94 kts 107°
2026-04-22 07:17 50.81165 -0.15991 2335 ft 94 kts 108°
2026-04-22 07:17 50.80981 -0.15007 2350 ft 94 kts 102°
2026-04-22 07:18 50.80785 -0.14020 2385 ft 94 kts 107°
2026-04-22 07:18 50.80559 -0.13051 2402 ft 94 kts 106°
2026-04-22 07:18 50.80366 -0.12062 2414 ft 94 kts 102°
2026-04-22 07:18 50.80231 -0.11055 2435 ft 94 kts 99°
2026-04-22 07:19 50.80110 -0.10041 2432 ft 95 kts 106°
2026-04-22 07:19 50.79613 -0.09262 2328 ft 115 kts 146°
2026-04-22 07:19 50.78807 -0.09259 2310 ft 122 kts 183°
2026-04-22 07:19 50.78049 -0.09855 2296 ft 120 kts 194°
2026-04-22 07:20 50.77332 -0.10494 2282 ft 117 kts 195°
2026-04-22 07:20 50.76632 -0.11098 2256 ft 114 kts 192°
2026-04-22 07:20 50.75940 -0.11654 2265 ft 110 kts 191°
2026-04-22 07:20 50.75250 -0.12190 2239 ft 110 kts 191°
2026-04-22 07:21 50.74558 -0.12691 2230 ft 108 kts 188°
2026-04-22 07:21 50.73875 -0.13139 2213 ft 108 kts 186°
2026-04-22 07:21 50.73180 -0.13553 2215 ft 104 kts 181°
2026-04-22 07:21 50.72486 -0.13890 2194 ft 105 kts 182°
2026-04-22 07:22 50.71802 -0.14366 2147 ft 118 kts 203°
2026-04-22 07:22 50.71459 -0.15647 2017 ft 142 kts 280°
2026-04-22 07:22 50.72102 -0.16491 1970 ft 112 kts
2026-04-22 07:22 50.72839 -0.16633 2004 ft 107 kts 10°
2026-04-22 07:23 50.73572 -0.16799 2000 ft 108 kts
2026-04-22 07:23 50.74305 -0.17071 2004 ft 108 kts
2026-04-22 07:23 50.75045 -0.17379 2038 ft 112 kts 359°
2026-04-22 07:23 50.75753 -0.17876 2233 ft 117 kts 340°
2026-04-22 07:24 50.76462 -0.18596 2275 ft 125 kts 342°
2026-04-22 07:24 50.77241 -0.19288 2304 ft 131 kts 344°
2026-04-22 07:24 50.78026 -0.19978 2392 ft 130 kts 343°
2026-04-22 07:24 50.78844 -0.20637 2404 ft 134 kts 346°
2026-04-22 07:25 50.79694 -0.21300 2398 ft 137 kts 345°
2026-04-22 07:25 50.80542 -0.22002 2408 ft 138 kts 343°
2026-04-22 07:25 50.81416 -0.22515 2412 ft 127 kts
2026-04-22 07:25 50.82049 -0.21942 2361 ft 102 kts 78°
2026-04-22 07:26 50.81871 -0.20952 2487 ft 91 kts 112°
2026-04-22 07:26 50.81556 -0.20073 2516 ft 93 kts 116°
2026-04-22 07:26 50.81207 -0.19212 2556 ft 93 kts 117°
2026-04-22 07:26 50.80833 -0.18381 2612 ft 90 kts 120°
2026-04-22 07:27 50.80433 -0.17639 2347 ft 92 kts 123°
2026-04-22 07:27 50.80006 -0.16861 1994 ft 90 kts 123°
2026-04-22 07:27 50.79617 -0.16234 1960 ft 72 kts 123°
2026-04-22 07:27 50.79281 -0.15714 1922 ft 62 kts 123°
2026-04-22 07:28 50.78818 -0.14760 1840 ft 50 kts 107°
2026-04-22 07:28 50.78665 -0.14274 1796 ft 48 kts 107°
2026-04-22 07:28 50.78565 -0.13772 1718 ft 49 kts 102°
2026-04-22 07:29 50.78439 -0.13265 1640 ft 50 kts 106°
2026-04-22 07:29 50.78250 -0.12777 1563 ft 54 kts 118°
2026-04-22 07:29 50.78027 -0.12355 1431 ft 47 kts 116°
2026-04-22 07:29 50.77801 -0.11978 1288 ft 46 kts 117°
2026-04-22 07:30 50.77593 -0.11611 1156 ft 42 kts 110°
2026-04-22 07:30 50.77458 -0.11185 1022 ft 43 kts 98°
2026-04-22 07:30 50.77394 -0.10740 921 ft 44 kts 92°
2026-04-22 07:30 50.77361 -0.10264 847 ft 42 kts 80°
2026-04-22 07:31 50.77363 -0.09814 782 ft 39 kts 77°
2026-04-22 07:31 50.77447 -0.09429 813 ft 39 kts 47°
2026-04-22 07:31 50.77683 -0.09073 815 ft 48 kts 50°
2026-04-22 07:31 50.77903 -0.08729 898 ft 45 kts 50°
2026-04-22 07:32 50.78159 -0.08319 891 ft 56 kts 51°
2026-04-22 07:32 50.78399 -0.07813 865 ft 60 kts 62°
2026-04-22 07:32 50.78493 -0.07230 892 ft 52 kts 77°
2026-04-22 07:32 50.78534 -0.06704 935 ft 46 kts 78°
2026-04-22 07:33 50.78541 -0.06157 947 ft 53 kts 86°
2026-04-22 07:33 50.78554 -0.05583 997 ft 51 kts 82°
2026-04-22 07:33 50.78583 -0.04995 996 ft 53 kts 84°
2026-04-22 07:33 50.78515 -0.04405 984 ft 55 kts 98°
2026-04-22 07:34 50.78374 -0.03841 986 ft 55 kts 99°
2026-04-22 07:34 50.78235 -0.03263 981 ft 55 kts 101°
2026-04-22 07:34 50.78100 -0.02714 990 ft 53 kts 102°
2026-04-22 07:34 50.77967 -0.02165 975 ft 55 kts 102°
2026-04-22 07:35 50.77842 -0.01596 971 ft 57 kts 101°
2026-04-22 07:35 50.77698 -0.00880 991 ft 75 kts 103°
2026-04-22 07:35 50.77533 -0.00058 1066 ft 83 kts 103°
2026-04-22 07:35 50.77317 0.00852 1072 ft 93 kts 105°
2026-04-22 07:36 50.77026 0.01792 1043 ft 97 kts 112°
2026-04-22 07:36 50.76685 0.02681 1029 ft 92 kts 115°
2026-04-22 07:36 50.76356 0.03527 1013 ft 89 kts 114°
2026-04-22 07:36 50.76077 0.04386 994 ft 88 kts 108°
2026-04-22 07:37 50.75684 0.05138 946 ft 101 kts 148°
2026-04-22 07:37 50.75040 0.04584 831 ft 127 kts 242°
2026-04-22 07:37 50.75037 0.03222 800 ft 123 kts 282°
2026-04-22 07:37 50.75141 0.01892 796 ft 120 kts 281°
2026-04-22 07:38 50.75252 0.00596 794 ft 118 kts 281°
2026-04-22 07:38 50.75371 -0.00670 802 ft 114 kts 282°
2026-04-22 07:38 50.75474 -0.01917 784 ft 113 kts 283°
2026-04-22 07:38 50.75588 -0.03152 774 ft 115 kts 284°
2026-04-22 07:39 50.75671 -0.04417 773 ft 115 kts 281°
2026-04-22 07:39 50.75716 -0.05677 795 ft 114 kts 277°
2026-04-22 07:39 50.75726 -0.06939 813 ft 113 kts 272°
2026-04-22 07:39 50.75706 -0.08171 821 ft 112 kts 271°
2026-04-22 07:40 50.75672 -0.09407 833 ft 112 kts 271°
2026-04-22 07:40 50.75668 -0.10639 825 ft 112 kts 275°
2026-04-22 07:40 50.75695 -0.11873 817 ft 113 kts 276°
2026-04-22 07:40 50.75710 -0.13116 818 ft 115 kts 274°
2026-04-22 07:41 50.75726 -0.14350 867 ft 111 kts 275°
2026-04-22 07:41 50.75745 -0.15587 885 ft 112 kts 272°
2026-04-22 07:41 50.75736 -0.16819 899 ft 113 kts 272°
2026-04-22 07:41 50.75750 -0.18056 873 ft 112 kts 275°
2026-04-22 07:42 50.75777 -0.18872 849 ft 113 kts 275°
2026-04-22 07:42 50.75734 -0.20123 847 ft 111 kts 265°
2026-04-22 07:42 50.75637 -0.21335 856 ft 110 kts 263°
2026-04-22 07:42 50.75515 -0.22558 838 ft 116 kts 261°
2026-04-22 07:43 50.75348 -0.23767 911 ft 111 kts 257°
2026-04-22 07:43 50.75134 -0.24975 886 ft 116 kts 255°
2026-04-22 07:43 50.74904 -0.26156 951 ft 114 kts 252°
2026-04-22 07:43 50.74678 -0.27367 974 ft 114 kts 255°
2026-04-22 07:44 50.74422 -0.28519 1013 ft 112 kts 246°
2026-04-22 07:44 50.74132 -0.29656 1027 ft 111 kts 246°
2026-04-22 07:44 50.73851 -0.30795 1037 ft 113 kts 248°
2026-04-22 07:44 50.73593 -0.31998 1012 ft 118 kts 251°
2026-04-22 07:45 50.73349 -0.33203 1041 ft 114 kts 252°
2026-04-22 07:45 50.73100 -0.34397 1037 ft 115 kts 251°
2026-04-22 07:45 50.72864 -0.35625 1039 ft 116 kts 252°
2026-04-22 07:45 50.72611 -0.36813 1088 ft 113 kts 245°
2026-04-22 07:46 50.72319 -0.37987 1076 ft 118 kts 247°
2026-04-22 07:46 50.72040 -0.39192 1109 ft 117 kts 247°
2026-04-22 07:46 50.71729 -0.40367 1150 ft 115 kts 242°
2026-04-22 07:46 50.71422 -0.41532 1158 ft 117 kts 244°
2026-04-22 07:47 50.71118 -0.42709 1199 ft 114 kts 244°
2026-04-22 07:47 50.70794 -0.43853 1221 ft 115 kts 238°
2026-04-22 07:47 50.70422 -0.44974 1257 ft 115 kts 237°
2026-04-22 07:47 50.70020 -0.46066 1290 ft 115 kts 232°
2026-04-22 07:48 50.69574 -0.47096 1315 ft 114 kts 229°
2026-04-22 07:48 50.69204 -0.48218 1302 ft 118 kts 246°
2026-04-22 07:48 50.68943 -0.49423 1331 ft 115 kts 245°
2026-04-22 07:48 50.68661 -0.50622 1327 ft 117 kts 245°
2026-04-22 07:49 50.68355 -0.51830 1358 ft 120 kts 243°
2026-04-22 07:49 50.68068 -0.53029 1399 ft 117 kts 247°
2026-04-22 07:49 50.67795 -0.54252 1422 ft 118 kts 246°
2026-04-22 07:49 50.67563 -0.55481 1454 ft 117 kts 252°
2026-04-22 07:50 50.67347 -0.56731 1477 ft 119 kts 250°
2026-04-22 07:50 50.67125 -0.58004 1551 ft 122 kts 250°
2026-04-22 07:50 50.66891 -0.59233 1796 ft 116 kts 248°
2026-04-22 07:50 50.66675 -0.60431 2011 ft 111 kts 249°
2026-04-22 07:51 50.66535 -0.61635 2204 ft 111 kts 256°
2026-04-22 07:51 50.66428 -0.62826 2387 ft 110 kts 256°
2026-04-22 07:51 50.66314 -0.64014 2553 ft 109 kts 254°
2026-04-22 07:51 50.66182 -0.65191 2709 ft 108 kts 252°
2026-04-22 07:52 50.66031 -0.66345 2896 ft 109 kts 252°
2026-04-22 07:52 50.65896 -0.67519 3083 ft 108 kts 253°
2026-04-22 07:52 50.65769 -0.68702 3244 ft 111 kts 256°
2026-04-22 07:52 50.65660 -0.69901 3419 ft 111 kts 254°
2026-04-22 07:53 50.65514 -0.71098 3604 ft 110 kts 251°
2026-04-22 07:53 50.65355 -0.72284 3744 ft 112 kts 252°
2026-04-22 07:53 50.65244 -0.73500 3903 ft 113 kts 261°
2026-04-22 07:53 50.65154 -0.74729 4058 ft 113 kts 258°
2026-04-22 07:54 50.65069 -0.75966 4215 ft 114 kts 260°
2026-04-22 07:54 50.65000 -0.77290 4256 ft 129 kts 264°
2026-04-22 07:54 50.65003 -0.78761 4312 ft 136 kts 275°
2026-04-22 07:54 50.65157 -0.80181 4341 ft 135 kts 285°
2026-04-22 07:55 50.65411 -0.81595 4355 ft 134 kts 288°
2026-04-22 07:55 50.65666 -0.83010 4351 ft 135 kts 286°
2026-04-22 07:55 50.65894 -0.84441 4343 ft 135 kts 286°
2026-04-22 07:55 50.66129 -0.85877 4348 ft 135 kts 285°
2026-04-22 07:56 50.66530 -0.87159 4306 ft 125 kts 333°
2026-04-22 07:56 50.67103 -0.86937 4282 ft 77 kts 71°
2026-04-22 07:56 50.67226 -0.86199 4300 ft 73 kts 94°
2026-04-22 07:56 50.67194 -0.85396 4320 ft 72 kts 95°
2026-04-22 07:57 50.67179 -0.84592 4318 ft 74 kts 92°
2026-04-22 07:57 50.67214 -0.83782 4324 ft 75 kts 90°
2026-04-22 07:57 50.67273 -0.82972 4340 ft 74 kts 87°
2026-04-22 07:57 50.67365 -0.82172 4357 ft 74 kts 84°
2026-04-22 07:58 50.67485 -0.81377 4363 ft 75 kts 82°
2026-04-22 07:58 50.67625 -0.80585 4360 ft 75 kts 85°
2026-04-22 07:58 50.67699 -0.79778 4354 ft 74 kts 87°
2026-04-22 07:58 50.67748 -0.78973 4336 ft 74 kts 90°
2026-04-22 07:59 50.67768 -0.78171 4332 ft 73 kts 92°
2026-04-22 07:59 50.67788 -0.77366 4321 ft 74 kts 88°
2026-04-22 07:59 50.67862 -0.76563 4305 ft 74 kts 88°
2026-04-22 07:59 50.67811 -0.75759 4289 ft 74 kts 103°
2026-04-22 08:00 50.67672 -0.74988 4294 ft 73 kts 103°
2026-04-22 08:00 50.67557 -0.74202 4286 ft 73 kts 100°
2026-04-22 08:00 50.67541 -0.73415 4197 ft 73 kts 88°
2026-04-22 08:00 50.67644 -0.72599 3991 ft 77 kts 82°
2026-04-22 08:01 50.67800 -0.71795 3798 ft 78 kts 77°
2026-04-22 08:01 50.68004 -0.70997 3602 ft 77 kts 76°
2026-04-22 08:01 50.68234 -0.70287 3491 ft 74 kts 70°
2026-04-22 08:01 50.68515 -0.69643 3383 ft 72 kts 64°
2026-04-22 08:02 50.68864 -0.69053 3224 ft 74 kts 58°
2026-04-22 08:02 50.69267 -0.68558 3140 ft 72 kts 50°
2026-04-22 08:02 50.69719 -0.68130 2968 ft 78 kts 46°
2026-04-22 08:02 50.70185 -0.67735 2838 ft 77 kts 46°
2026-04-22 08:03 50.70638 -0.67295 2696 ft 75 kts 50°
2026-04-22 08:03 50.70897 -0.66683 2509 ft 66 kts 91°
2026-04-22 08:03 50.70849 -0.66001 2427 ft 62 kts 94°
2026-04-22 08:03 50.70871 -0.65305 2297 ft 63 kts 85°
2026-04-22 08:04 50.71000 -0.64633 2179 ft 65 kts 79°
2026-04-22 08:04 50.71186 -0.63975 2060 ft 65 kts 77°
2026-04-22 08:04 50.71330 -0.63286 1921 ft 68 kts 76°
2026-04-22 08:04 50.71509 -0.62603 1816 ft 68 kts 73°
2026-04-22 08:05 50.71694 -0.61921 1725 ft 65 kts 73°
2026-04-22 08:05 50.71894 -0.61283 1629 ft 67 kts 68°
2026-04-22 08:05 50.72162 -0.60690 1618 ft 68 kts 64°
2026-04-22 08:05 50.72446 -0.60069 1638 ft 73 kts 62°
2026-04-22 08:06 50.72723 -0.59375 1624 ft 78 kts 66°
2026-04-22 08:06 50.72971 -0.58604 1639 ft 80 kts 71°
2026-04-22 08:06 50.73189 -0.57798 1671 ft 80 kts 73°
2026-04-22 08:06 50.73381 -0.56973 1711 ft 80 kts 76°
2026-04-22 08:07 50.73541 -0.56126 1713 ft 80 kts 77°
2026-04-22 08:07 50.73735 -0.55295 1711 ft 82 kts 76°
2026-04-22 08:07 50.73914 -0.54450 1741 ft 81 kts 77°
2026-04-22 08:07 50.74101 -0.53623 1754 ft 79 kts 75°
2026-04-22 08:08 50.74248 -0.52785 1740 ft 79 kts 80°
2026-04-22 08:08 50.74326 -0.51929 1738 ft 79 kts 84°
2026-04-22 08:08 50.74393 -0.51069 1737 ft 79 kts 83°
2026-04-22 08:08 50.74465 -0.50216 1736 ft 78 kts 84°
2026-04-22 08:09 50.74526 -0.49339 1694 ft 82 kts 85°
2026-04-22 08:09 50.74589 -0.48449 1713 ft 81 kts 84°
2026-04-22 08:09 50.74641 -0.47557 1691 ft 82 kts 90°
2026-04-22 08:09 50.74643 -0.46668 1712 ft 80 kts 89°
2026-04-22 08:10 50.74695 -0.45774 1692 ft 82 kts 84°
2026-04-22 08:10 50.74785 -0.44886 1694 ft 82 kts 84°
2026-04-22 08:10 50.74863 -0.43996 1677 ft 82 kts 84°
2026-04-22 08:10 50.74931 -0.43127 1702 ft 78 kts 86°
2026-04-22 08:11 50.74952 -0.42270 1675 ft 79 kts 90°
2026-04-22 08:11 50.74945 -0.41416 1678 ft 77 kts 87°
2026-04-22 08:11 50.74995 -0.40563 1649 ft 79 kts 85°
2026-04-22 08:11 50.75036 -0.39699 1641 ft 79 kts 85°
2026-04-22 08:12 50.75108 -0.38835 1647 ft 79 kts 84°
2026-04-22 08:12 50.75172 -0.37974 1652 ft 78 kts 84°
2026-04-22 08:12 50.75293 -0.37143 1653 ft 80 kts 75°
2026-04-22 08:12 50.75596 -0.36392 1667 ft 84 kts 57°
2026-04-22 08:13 50.76035 -0.35728 1618 ft 91 kts 52°
2026-04-22 08:13 50.76526 -0.35128 1657 ft 88 kts 50°
2026-04-22 08:13 50.77010 -0.34560 1684 ft 86 kts 48°
2026-04-22 08:13 50.77505 -0.34028 1660 ft 86 kts 45°
2026-04-22 08:14 50.78012 -0.33526 1399 ft 90 kts 43°
2026-04-22 08:14 50.78534 -0.33045 1227 ft 83 kts 41°
2026-04-22 08:14 50.78996 -0.32642 1031 ft 68 kts 36°
2026-04-22 08:14 50.79432 -0.32365 805 ft 67 kts 25°
2026-04-22 08:15 50.79877 -0.32157 643 ft 66 kts 27°
2026-04-22 08:15 50.80298 -0.31900 553 ft 63 kts 31°
2026-04-22 08:15 50.80683 -0.31610 476 ft 58 kts 30°
2026-04-22 08:15 50.81022 -0.31328 401 ft 50 kts 28°
2026-04-22 08:16 50.81343 -0.31129 306 ft 50 kts 26°
2026-04-22 08:16 50.81664 -0.30920 245 ft 51 kts 24°
2026-04-22 08:16 50.82021 -0.30698 227 ft 58 kts 29°
2026-04-22 08:16 50.82420 -0.30447 222 ft 62 kts 28°
2026-04-22 08:17 50.82806 -0.30183 122 ft 59 kts 29°
2026-04-22 08:17 50.83156 -0.29980 195 ft 50 kts 26°
2026-04-22 08:17 50.83509 -0.29795 225 ft 55 kts 25°
2026-04-22 08:17 50.83852 -0.29634 315 ft 48 kts 26°
2026-04-22 08:18 50.84175 -0.29471 401 ft 52 kts 32°
2026-04-22 08:18 50.84524 -0.29169 559 ft 64 kts 32°
2026-04-22 08:18 50.84864 -0.28753 740 ft 65 kts 67°
2026-04-22 08:18 50.84740 -0.28007 849 ft 77 kts 114°
2026-04-22 08:19 50.84308 -0.27462 1092 ft 81 kts 137°
2026-04-22 08:19 50.83730 -0.27338 1247 ft 98 kts 184°
2026-04-22 08:19 50.83167 -0.28143 1257 ft 115 kts 223°
2026-04-22 08:19 50.82664 -0.29065 1449 ft 102 kts 209°
2026-04-22 08:20 50.82090 -0.29687 1491 ft 103 kts 198°
2026-04-22 08:20 50.81478 -0.30304 1518 ft 105 kts 199°
2026-04-22 08:20 50.80890 -0.30987 1605 ft 104 kts 204°
2026-04-22 08:20 50.80323 -0.31688 1663 ft 105 kts 205°
2026-04-22 08:21 50.79766 -0.32455 1693 ft 112 kts 222°
2026-04-22 08:21 50.79593 -0.33677 1588 ft 115 kts 275°
2026-04-22 08:21 50.79934 -0.34747 1221 ft 104 kts 335°
2026-04-22 08:21 50.80475 -0.34671 886 ft 74 kts 50°
2026-04-22 08:22 50.80594 -0.34007 787 ft 58 kts 78°
2026-04-22 08:22 50.80629 -0.33399 726 ft 52 kts 79°
2026-04-22 08:22 50.80680 -0.32837 687 ft 51 kts 77°
2026-04-22 08:22 50.80735 -0.32270 635 ft 57 kts 73°
2026-04-22 08:23 50.80857 -0.31671 634 ft 55 kts 62°
2026-04-22 08:23 50.81030 -0.31148 606 ft 56 kts 51°
2026-04-22 08:23 50.81410 -0.30892 500 ft 66 kts 17°
2026-04-22 08:23 50.81855 -0.30735 389 ft 64 kts 24°
2026-04-22 08:24 50.82293 -0.30512 277 ft 68 kts 25°
2026-04-22 08:24 50.82720 -0.30266 156 ft 65 kts 26°
2026-04-22 08:24 50.83118 -0.30013 53 ft 59 kts 30°
2026-04-22 08:24 50.83467 -0.29790 10 ft 43 kts 21°
2026-04-22 08:25 50.83680 -0.29658 12 ft 25 kts 23°
2026-04-22 08:25 50.83804 -0.29580 11 ft 16 kts 22°
2026-04-22 08:25 50.83899 -0.29521 10 ft 13 kts 21°
2026-04-22 08:25 50.83986 -0.29468 8 ft 8 kts 19°
2026-04-22 08:26 50.83992 -0.29433 8 ft 3 kts 105°
2026-04-22 08:26 50.83977 -0.29369 9 ft 7 kts 115°
2026-04-22 08:26 50.83951 -0.29331 9 ft 0 kts 183°
2026-04-22 08:27 50.83949 -0.29331 9 ft 2 kts 181°
2026-04-22 08:27 50.83911 -0.29334 9 ft 10 kts 182°
2026-04-22 08:28 50.83833 -0.29314 9 ft 12 kts 146°
2026-04-22 08:28 50.83787 -0.29222 9 ft 10 kts 124°
2026-04-22 08:28 50.83749 -0.29136 9 ft 11 kts 127°
2026-04-22 08:28 50.83700 -0.29026 9 ft 12 kts 126°
2026-04-22 08:29 50.83659 -0.28933 9 ft 9 kts 128°
2026-04-22 08:29 50.83622 -0.28853 8 ft 9 kts 135°
2026-04-22 08:29 50.83592 -0.28826 9 ft 7 kts 155°
2026-04-22 08:29 50.83547 -0.28815 9 ft 7 kts 194°
2026-04-22 08:30 50.83506 -0.28879 9 ft 11 kts 252°
2026-04-22 08:30 50.83481 -0.29003 9 ft 11 kts 255°
2026-04-22 08:30 50.83452 -0.29050 9 ft 5 kts 106°
2026-04-22 08:30 50.83454 -0.29029 9 ft 1 kts 73°
2026-04-22 08:31 50.83455 -0.29027 9 ft 0 kts 72°